• In Uzbekistan
  • List of Countries
  • For 7 days
  • Water Temperature
  • Satellite Maps
  • Weather Map
  • Weather Widgets
  • user-avatar
    Login

    Hourly Weather Eisenstadt

    Today, 24 February, Saturday

    Time Temperature Precipitation Wind Pressure Humidity
    00:00 -7°C° 0 mm 3 mps 722 mmHg 90%
    01:00 -7°C° 0 mm 3 mps 723 mmHg 88%
    02:00 -7°C° 0 mm 3 mps 723 mmHg 88%
    03:00 -7°C° 0 mm 3 mps 723 mmHg 87%
    04:00 -8°C° 0 mm 3 mps 723 mmHg 86%
    05:00 -8°C° 0 mm 3 mps 723 mmHg 86%
    06:00 -8°C° 0 mm 3 mps 723 mmHg 86%
    07:00 -9°C° 0 mm 3 mps 723 mmHg 88%
    08:00 -8°C° 0 mm 3 mps 723 mmHg 82%
    09:00 -8°C° 0 mm 4 mps 723 mmHg 76%
    10:00 -7°C° 0 mm 5 mps 723 mmHg 70%
    11:00 -7°C° 0 mm 5 mps 723 mmHg 69%
    12:00 -6°C° 0 mm 5 mps 723 mmHg 68%
    13:00 -6°C° 0 mm 5 mps 723 mmHg 66%
    14:00 -6°C° 0 mm 5 mps 723 mmHg 68%
    15:00 -6°C° 0 mm 5 mps 723 mmHg 70%
    16:00 -6°C° 0 mm 5 mps 723 mmHg 72%
    17:00 -7°C° 0 mm 5 mps 723 mmHg 74%
    18:00 -10°C° 0 mm 5 mps 724 mmHg 76%
    19:00 -11°C° 0 mm 5 mps 724 mmHg 77%
    20:00 -11°C° 0 mm 5 mps 724 mmHg 77%
    21:00 -12°C° 0 mm 5 mps 725 mmHg 77%
    22:00 -11°C° 0 mm 4 mps 725 mmHg 77%
    23:00 -12°C° 0 mm 4 mps 725 mmHg 79%

    Tomorrow, 25 February, Sunday

    Time Temperature Precipitation Wind Pressure Humidity
    00:00 -12°C° 0 mm 4 mps 726 mmHg 80%
    01:00 -14°C° 0 mm 4 mps 726 mmHg 81%
    02:00 -14°C° 0 mm 4 mps 726 mmHg 82%
    03:00 -13°C° 0 mm 3 mps 726 mmHg 82%
    04:00 -14°C° 0 mm 3 mps 726 mmHg 83%
    05:00 -14°C° 0 mm 3 mps 726 mmHg 83%
    06:00 -14°C° 0 mm 3 mps 726 mmHg 83%
    07:00 -15°C° 0 mm 3 mps 726 mmHg 84%
    08:00 -14°C° 0 mm 3 mps 726 mmHg 79%
    09:00 -13°C° 0 mm 3 mps 726 mmHg 75%
    10:00 -11°C° 0 mm 4 mps 726 mmHg 70%
    11:00 -11°C° 0 mm 4 mps 726 mmHg 69%
    12:00 -10°C° 0 mm 4 mps 726 mmHg 68%
    13:00 -10°C° 0 mm 4 mps 725 mmHg 66%
    14:00 -10°C° 0 mm 4 mps 725 mmHg 68%
    15:00 -9°C° 0 mm 3 mps 725 mmHg 70%
    16:00 -9°C° 0 mm 3 mps 724 mmHg 71%
    17:00 -10°C° 0 mm 3 mps 725 mmHg 75%
    18:00 -12°C° 0 mm 3 mps 725 mmHg 78%
    19:00 -13°C° 0 mm 3 mps 725 mmHg 82%
    20:00 -13°C° 0 mm 3 mps 725 mmHg 83%
    21:00 -13°C° 0 mm 3 mps 725 mmHg 83%
    22:00 -14°C° 0 mm 3 mps 725 mmHg 84%
    23:00 -14°C° 0 mm 3 mps 725 mmHg 84%

    Day after tomorrow, 26 February, Monday

    Time Temperature Precipitation Wind Pressure Humidity
    00:00 -14°C° 0 mm 3 mps 724 mmHg 85%
    01:00 -14°C° 0 mm 3 mps 724 mmHg 85%
    02:00 -15°C° 0 mm 3 mps 724 mmHg 85%
    03:00 -15°C° 0 mm 3 mps 724 mmHg 86%
    04:00 -15°C° 0 mm 3 mps 724 mmHg 86%
    05:00 -15°C° 0 mm 3 mps 723 mmHg 86%
    06:00 -15°C° 0 mm 3 mps 723 mmHg 85%
    07:00 -15°C° 0 mm 3 mps 723 mmHg 85%
    08:00 -15°C° 0 mm 4 mps 723 mmHg 80%
    09:00 -14°C° 0 mm 4 mps 723 mmHg 76%
    10:00 -13°C° 0 mm 5 mps 723 mmHg 72%
    11:00 -12°C° 0 mm 5 mps 723 mmHg 69%
    12:00 -11°C° 0 mm 5 mps 722 mmHg 67%
    13:00 -11°C° 0 mm 5 mps 722 mmHg 65%
    14:00 -11°C° 0 mm 5 mps 722 mmHg 66%
    15:00 -11°C° 0 mm 5 mps 721 mmHg 67%
    16:00 -11°C° 0 mm 5 mps 721 mmHg 68%
    17:00 -11°C° 0 mm 5 mps 721 mmHg 70%
    18:00 -12°C° 0 mm 5 mps 721 mmHg 72%
    19:00 -12°C° 0 mm 5 mps 721 mmHg 75%
    20:00 -13°C° 0 mm 5 mps 721 mmHg 75%
    21:00 -13°C° 0 mm 5 mps 721 mmHg 75%
    22:00 -14°C° 0 mm 5 mps 721 mmHg 76%
    23:00 -14°C° 0 mm 5 mps 721 mmHg 76%

    27 February, Tuesday

    Time Temperature Precipitation Wind Pressure Humidity
    00:00 -14°C° 0 mm 5 mps 721 mmHg 76%
    01:00 -14°C° 0 mm 5 mps 720 mmHg 76%
    02:00 -15°C° 0 mm 5 mps 720 mmHg 76%
    03:00 -15°C° 0 mm 5 mps 720 mmHg 76%
    04:00 -15°C° 0 mm 5 mps 719 mmHg 76%
    05:00 -15°C° 0 mm 5 mps 719 mmHg 76%
    06:00 -15°C° 0 mm 5 mps 719 mmHg 76%
    07:00 -15°C° 0 mm 5 mps 719 mmHg 76%
    08:00 -15°C° 0 mm 5 mps 720 mmHg 73%
    09:00 -14°C° 0 mm 5 mps 720 mmHg 70%
    10:00 -13°C° 0 mm 5 mps 720 mmHg 67%
    11:00 -13°C° 0 mm 5 mps 719 mmHg 66%
    12:00 -12°C° 0 mm 5 mps 719 mmHg 64%
    13:00 -11°C° 0 mm 5 mps 719 mmHg 62%
    14:00 -12°C° 0 mm 5 mps 719 mmHg 63%
    15:00 -11°C° 0 mm 4 mps 719 mmHg 64%
    16:00 -11°C° 0 mm 4 mps 719 mmHg 65%
    17:00 -11°C° 0 mm 4 mps 719 mmHg 68%
    18:00 -12°C° 0 mm 4 mps 720 mmHg 72%
    19:00 -13°C° 0 mm 3 mps 720 mmHg 75%
    20:00 -13°C° 0 mm 3 mps 720 mmHg 76%
    21:00 -14°C° 0 mm 3 mps 720 mmHg 77%
    22:00 -14°C° 0 mm 3 mps 721 mmHg 78%
    23:00 -14°C° 0 mm 3 mps 721 mmHg 79%

    28 February, Wednesday

    Time Temperature Precipitation Wind Pressure Humidity
    00:00 -14°C° 0 mm 3 mps 721 mmHg 80%
    01:00 -15°C° 0 mm 3 mps 721 mmHg 81%
    02:00 -14°C° 0 mm 2 mps 721 mmHg 82%
    03:00 -14°C° 0 mm 2 mps 721 mmHg 83%
    04:00 -14°C° 0 mm 2 mps 721 mmHg 83%
    05:00 -14°C° 0 mm 2 mps 721 mmHg 83%
    06:00 -14°C° 0 mm 2 mps 722 mmHg 83%
    07:00 -14°C° 0 mm 2 mps 722 mmHg 83%
    08:00 -13°C° 0 mm 2 mps 722 mmHg 77%
    09:00 -13°C° 0 mm 3 mps 723 mmHg 71%
    10:00 -10°C° 0 mm 3 mps 723 mmHg 66%
    11:00 -9°C° 0 mm 3 mps 723 mmHg 64%
    12:00 -9°C° 0 mm 3 mps 723 mmHg 62%
    13:00 -8°C° 0 mm 3 mps 723 mmHg 60%
    14:00 -7°C° 0 mm 2 mps 723 mmHg 62%
    15:00 -7°C° 0 mm 2 mps 723 mmHg 63%
    16:00 -7°C° 0 mm 2 mps 723 mmHg 65%
    17:00 -8°C° 0 mm 2 mps 723 mmHg 70%
    18:00 -9°C° 0 mm 2 mps 723 mmHg 75%
    19:00 -9°C° 0 mm 1 mps 724 mmHg 80%
    20:00 -10°C° 0 mm 1 mps 724 mmHg 81%
    21:00 -10°C° 0 mm 1 mps 724 mmHg 82%
    22:00 -10°C° 0 mm 1 mps 724 mmHg 83%
    23:00 -10°C° 0 mm 1 mps 724 mmHg 83%

    1 March, Thursday

    Time Temperature Precipitation Wind Pressure Humidity
    00:00 -11°C° 0 mm 1 mps 724 mmHg 84%
    01:00 -11°C° 0 mm 1 mps 724 mmHg 85%
    02:00 -11°C° 0 mm 1 mps 723 mmHg 86%
    03:00 -11°C° 0 mm 1 mps 723 mmHg 87%
    04:00 -12°C° 0 mm 1 mps 723 mmHg 88%
    05:00 -12°C° 0 mm 1 mps 722 mmHg 89%
    06:00 -14°C° 0 mm 2 mps 722 mmHg 90%
    07:00 -14°C° 0 mm 2 mps 722 mmHg 91%
    08:00 -13°C° 0 mm 2 mps 721 mmHg 86%
    09:00 -12°C° 0 mm 3 mps 721 mmHg 82%
    10:00 -10°C° 0 mm 3 mps 721 mmHg 77%
    11:00 -10°C° 0 mm 4 mps 720 mmHg 75%
    12:00 -9°C° 0 mm 4 mps 719 mmHg 73%
    13:00 -8°C° 0 mm 4 mps 719 mmHg 72%
    14:00 -8°C° 0 mm 4 mps 718 mmHg 74%
    15:00 -8°C° 0 mm 4 mps 718 mmHg 77%
    16:00 -8°C° 0 mm 4 mps 717 mmHg 80%
    17:00 -7°C° 0 mm 3 mps 717 mmHg 84%
    18:00 -8°C° 0 mm 3 mps 717 mmHg 87%
    19:00 -8°C° 0 mm 3 mps 717 mmHg 91%
    20:00 -8°C° 0 mm 3 mps 716 mmHg 92%
    21:00 -7°C° 0 mm 2 mps 716 mmHg 93%
    22:00 -7°C° 0 mm 2 mps 716 mmHg 94%
    23:00 -6°C° 0.1 mm 2 mps 715 mmHg 94%
    Show more